Submittal Forms
Current Contests
Recent Contests

Club Activity Tracker - Western Washington DX Club (from club selection on form)

Recent postings for the selected club or group are listed below. Other than the call used, all calls listed are only those associated with the club or group. Click on a call to see the details of the posting.
Status Key: new=new posting, update=update prior posting, move=change club/group, delete=delete prior posting.

Sort by   for past

TimestampCallContestClassPowerScoreStatus
2021-05-14 03:19:28N7DX(@K7RI)NCCC SprintSingle OpLP667new6425
2021-05-13 17:42:06WV7SCWopsTSingle OpLP441new6421
2021-05-13 05:03:41N7DX(@K7RL)CWopsTSingle OpHP7,921new6421
2021-05-13 03:56:01WC7QCWopsTSingle OpHP6,889new6421
2021-05-13 03:41:29NR5WCWopsTSingle OpLP144new6421
2021-05-13 03:39:18WR5JCWopsTSingle OpLP144new6421
2021-05-12 20:09:19WR5JCWopsTSingle OpLP196new6420
2021-05-12 15:55:15WR5JCWopsTSingle OpLP121new6419
2021-05-10 14:10:07N7DX(@K7RL)CWopsTSingle OpHP16,456update6404
2021-05-10 00:59:19KB7BTOKRC SSTAcademy Single OpLP25new6415
 
2021-05-09 03:28:02W6OATArQPSOMixedHP1,449new6413
2021-05-09 01:48:25K7VAPVolta RTTYSOAB-6LP2,124,540new6411
2021-05-08 00:49:15W7OMCWopsTSingle OpLP5,184new6404
2021-05-08 00:48:30W7OMCWopsTSingle OpLP3,969new6403
2021-05-08 00:46:35W7OMCWopsTSingle OpLP3,782new6402
2021-05-07 03:24:09N7DX(@K7RI)NCCC SprintSingle OpLP690new6409
2021-05-06 05:12:43NR5WCWopsTSingle OpLP552new6404
2021-05-06 04:02:17WC7QCWopsTSingle OpHP14,161new6404
2021-05-06 04:00:30WR5JCWopsTSingle OpLP840new6404
2021-05-05 20:02:40NR5WCWopsTSingle OpLP289new6403
 
2021-05-05 20:01:11WR5JCWopsTSingle OpLP1,444new6403
2021-05-05 14:02:05WC7QCWopsTSingle OpHP5,041new6402
2021-05-05 14:01:21WR5JCWopsTSingle OpLP196new6402
2021-05-04 03:18:32N7WA/M(N7WA)7QPSO MobileCWLP74,034new6394
2021-05-03 04:31:45NN7M7QPCnty Exped SOLP61,875new6394
2021-05-03 03:01:10W7EEE(W6IA)7QPCnty Exped M/MLP126,540new6394
2021-05-03 01:19:32W6OATInQPSingle OpHP1,020update6395
2021-05-03 00:36:32W6OATNewEngQPSingle OpHP4,154new6397
2021-05-03 00:28:03W6OATDeQPSingle OpHP240new6396
2021-05-02 23:45:46KX7L7QPSOCWLP7,650new6394
 
2021-05-02 19:50:55W7UDH7QPSOCWHP101,775new6394
2021-05-02 19:31:19N7BV7QPSO(A)CWHP116,028new6394
2021-05-02 19:24:06K7RL7QPSOMixedHP385,089new6394
2021-05-02 18:10:23W7OM7QPSOMixedLP87,966new6394
2021-05-02 14:58:58N7KN7QPSOSSBHP26,928new6394
2021-05-02 07:55:30K7BTW7QPM/MHP300,633new6394
 (K7VAP,K7MO,WV7S,@K7BTW)
2021-05-02 07:44:14KB2S7QPSO(A)MixedHP2,220new6394
2021-05-02 07:19:55W6OAT7QPSO(A)CWHP270,549new6394
2021-05-02 07:14:27N7DX7QPSO(A)CWLP9,963new6394
2021-05-02 06:42:12KB7BTO7QPSOMixedLP3,904new6394
 
2021-05-02 04:27:49K7HBN7QPSOCWLP51,192new6394
2021-04-30 23:06:45W7OMCWopsTSingle OpLP6,020new6386
2021-04-30 23:05:46W7OMCWopsTSingle OpLP5,929new6385
2021-04-30 21:07:52KB7BTOKRC SSTAcademy Single OpLP25new6391
2021-04-30 03:15:53N7DX(@K7RI)NCCC SprintSingle OpLP720new6390
2021-04-29 04:15:24N7DX(@K7RL)CWopsTSingle OpHP15,080new6386
2021-04-29 04:01:53WR5JCWopsTSingle OpLP960new6386
2021-04-29 04:00:59NR5WCWopsTSingle OpLP625new6386
2021-04-28 21:32:23NR5WCWopsTSingle OpLP361new6385
2021-04-28 20:47:07WR5JCWopsTSingle OpLP625new6385
 
2021-04-28 20:01:49WC7QCWopsTSingle OpHP17,956new6385
2021-04-28 14:05:03WR5JCWopsTSingle OpLP576new6384
2021-04-28 13:33:09WC7QCWopsTSingle OpHP484new6384
2021-04-26 17:51:09W7OMFlQPSOABCWLP10,080new6375
2021-04-26 00:40:16WC7QFlQPSOABCWHP10,560new6375
2021-04-23 03:18:15N7DX(@K7RI)NCCC SprintSingle OpLP1,015new6370
2021-04-22 16:56:58W7OMCWopsTSingle OpLP5,400new6366
2021-04-22 16:55:43W7OMCWopsTSingle OpLP4,489new6365
2021-04-22 16:54:45W7OMCWopsTSingle OpLP2,704new6364
2021-04-22 05:07:00N7DX(@K7RL)CWopsTSingle OpHP11,664new6366
 
2021-04-22 04:00:50NR5WCWopsTSingle OpLP529new6366
2021-04-22 03:41:31WR5JCWopsTSingle OpLP196new6366
2021-04-21 20:03:06NR5WCWopsTSingle OpLP400new6365
2021-04-21 20:02:33WR5JCWopsTSingle OpLP1,156new6365
2021-04-21 13:56:04WR5JCWopsTSingle OpLP144new6364
2021-04-18 23:52:10W7OMCQMM DXSOABLP8,475new6356
2021-04-18 23:40:30W6OATCQMM DXSOABHP4,536new6356
2021-04-18 05:07:15W6OATMiQPSingle OpHP3,549new6357
2021-04-18 03:46:58K7VAPMiQPSingle OpLP132new6357
2021-04-16 03:34:36K7VAPIG-RY RTTYSingle OpLP2,600new6340
 
2021-04-16 03:11:14N7DX(@K7RI)NCCC SprintSingle OpLP651new6350
2021-04-15 23:44:17WV7SCWopsTSingle OpLP420new6347
2021-04-15 18:20:42W7OMCWopsTSingle OpLP5,440new6347
2021-04-15 18:18:43W7OMCWopsTSingle OpLP3,712new6345
2021-04-15 04:27:27N7DX(@K7RL)CWopsTSingle OpHP13,924new6347
2021-04-15 04:02:41NR5WCWopsTSingle OpLP576new6347
2021-04-15 03:55:44WR5JCWopsTSingle OpLP462new